FENGYUN 1C DEB, 30279

Orbit data source: Space-Track

FENGYUN 1C DEB, 30279 is space debris in SSO originally from a launch on Mon, 10 May 1999 UTC launched from the Taiyaun Space Center, China (TSC). Fengyun 1C debris stems from the Chinese weather satellite Fengyun-1C, which was intentionally destroyed by a Chinese anti-satellite missile in 2007. This event dramatically increased the amount of space debris, with thousands of trackable fragments posing hazards to satellites and human spaceflight. The Fengyun 1C debris cloud has become a focal point in discussions about space sustainability and the need for international regulations to prevent the creation of new debris.

Loading next visibility...
Identifier
30279, 1999-025YQ
Orbit
SSO
Country
Flag of CNCN / PRC
Related business
Manufacturer
Unknown
Mission
Spacecraft
Bus & Motor
Unknown
Mass
Unknown
Launch date (UTC)
1999-05-10 (27 years ago)
Launch vehicle
Unknown
Launch site
Taiyaun Space Center, China (TSC)
Object type
Payload
Rocket body
Debris
Shape & HBR
Unknown shape, 0.1 m
Radar Cross Section
Small (<0.1 m²)

Expand to show TLE details & history
Last TLE update: 9 hours ago

TLE from 9 hours ago
0 FENGYUN 1C DEB
1 30279U 99025YQ  25355.41386812  .00001831  00000-0  64985-3 0  9997
2 30279  99.1511 290.4753 0219825  47.9644  69.0510 14.23133042977344
Epoch: 2025-12-21T09:55Z
TLE epoch observation values (Epoch: 2025-12-21T09:55:58.205Z)
Latitude
59.43844°
Longitude
-112.9994°
Altitude
771.337 km
Speed
7.502 km/s
True Right ascension
08h 24m 52s
True Declination
59° 17' 16"
Sunlit
Object was in full shadow at epoch
Visualization orbit readout
Latitude
Unknown
Longitude
Unknown
Altitude
Unknown
Speed
Unknown
Apparent Right ascension
Unknown
Apparent Declination
Unknown
Sunlit
N/A
Visualization observer readout
Local Sidereal Time
18:16:51
Azimuth
Unknown
Elevation
Unknown
Doppler factor
Unknown
Orbital elements
Apogee altitude
970.007 km
Perigee altitude
653.894 km
Semi-major axis
7,190.088 km
Eccentricity
0.02198
Inclination
99.1511°
RAAN
290.4753°
Arg. of periapsis
47.9644°
True anomaly
71.42615°
Mean anomaly
69.051°
Eccentric anomaly
70.23631°
Mean motion
3.55993 °/min
Orbital period
101.13 mins
BSTAR
0.00064985
Loading maneuver chart data...
Computing Atmospheric mass density...

Documentation

Showing up to 5 results
|